Location: Unspecified
(34.0000°N, 0.0000°E)
Time: 00:21:54
(UTC+00:00)

Cosmos 422 Rocket - Visible Passes

Search period start: 04 April 2026 00:00
Search period end: 14 April 2026 00:00
Orbit: 977 x 993 km, 74.0° (Epoch: 28 March)

Date Brightness Start Highest point End Pass type
(mag) Time Alt. Az. Time Alt. Az. Time Alt. Az.
4 Apr 6.5 01:42:59 23° NNE 01:42:59 23° NNE 01:45:15 10° NNE visible
4 Apr 6.4 03:27:50 16° NW 03:27:50 16° NW 03:30:18 10° NNW visible
5 Apr 6.2 02:10:59 26° N 02:10:59 26° N 02:13:40 10° N visible
6 Apr 7.0 00:54:06 14° NE 00:54:06 14° NE 00:55:03 10° NE visible
6 Apr 6.3 02:38:57 21° NNW 02:38:57 21° NNW 02:41:31 10° N visible
7 Apr 6.6 01:22:03 21° NNE 01:22:03 21° NNE 01:23:54 10° NNE visible
7 Apr 6.6 03:06:54 13° NW 03:06:54 13° NW 03:08:18 10° NNW visible
8 Apr 6.4 01:49:58 22° N 01:49:58 22° N 01:52:12 10° N visible
9 Apr 7.0 00:33:01 14° NNE 00:33:01 14° NNE 00:33:50 10° NNE visible
9 Apr 6.5 02:17:52 17° NNW 02:17:52 17° NNW 02:19:51 10° N visible
10 Apr 6.7 01:00:54 19° NNE 01:00:54 19° NNE 01:02:33 10° NNE visible
10 Apr 6.8 02:45:45 10° NW 02:45:45 10° NW 02:45:54 10° NW visible
11 Apr 6.6 01:28:45 20° N 01:28:45 20° N 01:30:40 10° N visible
12 Apr 7.0 00:11:44 14° NNE 00:11:44 14° NNE 00:12:35 10° NNE visible
12 Apr 6.7 01:56:34 15° NNW 01:56:34 15° NNW 01:58:06 10° NNW visible
13 Apr 6.7 00:39:32 19° N 00:39:32 19° N 00:41:08 10° NNE visible
